Location: Roland
(31.1349°N, 85.4372°W)
Time: 04:40:43
(UTC+00:00)

Vanguard 1 Rocket - Visible Passes

Search period start: 09 December 2023 00:00
Search period end: 19 December 2023 00:00
Orbit: 655 x 4218 km, 34.3° (Epoch: 08 December)

Date Brightness Start Highest point End Pass type
(mag) Time Alt. Az. Time Alt. Az. Time Alt. Az.
09 Dec11.904:48:47E04:48:47E04:15:56Svisible
09 Dec 10.9 07:06:06 43° SE 07:06:06 43° SE 07:22:51 10° ENE visible
09 Dec 10.2 09:23:26 43° SW 09:35:04 80° SSE 09:51:27 10° ENE visible
09 Dec 9.7 11:44:14 10° W 12:06:20 79° N 12:17:29 10° E visible
10 Dec 11.4 05:59:16 23° E 05:59:16 23° E 06:07:27 10° E visible
10 Dec 10.4 08:16:35 63° S 08:19:46 67° SSE 08:38:50 10° ENE visible
10 Dec 9.9 10:33:53 23° W 10:51:58 84° NNW 11:05:49 10° ENE visible
11 Dec11.804:52:16E04:52:16E04:15:51Svisible
11 Dec 10.8 07:09:33 48° ESE 07:09:33 48° ESE 07:25:19 10° ENE visible
11 Dec 10.1 09:26:51 49° WSW 09:36:54 87° SSE 09:53:42 10° ENE visible
11 Dec 9.7 11:46:12 10° W 12:08:35 79° N 12:19:55 10° E visible
12 Dec 11.4 06:02:23 25° E 06:02:23 25° E 06:10:25 10° ENE visible
12 Dec 10.3 08:19:41 73° S 08:21:21 75° SSE 08:41:02 10° ENE visible
12 Dec 10.0 10:36:57 26° W 10:54:05 81° N 11:08:10 10° E visible
13 Dec11.704:55:06E04:55:06E04:16:14Svisible
13 Dec 10.7 07:12:23 51° ESE 07:12:23 51° ESE 07:27:35 10° ENE visible
13 Dec 10.1 09:29:39 53° WSW 09:38:47 88° NNW 09:55:58 10° ENE visible
13 Dec 9.8 11:48:08 10° W 12:10:48 82° N 12:22:20 10° E visible
14 Dec 11.3 06:04:58 27° E 06:04:58 27° E 06:12:58 10° ENE visible
14 Dec 10.3 08:22:15 81° S 08:22:59 82° SSE 08:43:12 10° ENE visible
14 Dec 10.0 10:39:30 27° W 10:56:13 80° N 11:10:32 10° E visible
15 Dec11.604:57:31E04:57:31E04:17:01Svisible
15 Dec 10.7 07:14:45 54° E 07:14:45 54° E 07:29:43 10° ENE visible
15 Dec 10.2 09:32:01 54° W 09:40:45 84° N 09:58:14 10° E visible
15 Dec 9.8 11:50:01 10° WNW 12:12:59 86° NNE 12:24:44 10° ESE visible
16 Dec 11.3 06:07:12 28° E 06:07:12 28° E 06:15:15 10° ENE visible
16 Dec 10.2 08:24:27 87° S 08:24:42 88° SSE 08:45:22 10° ENE visible
16 Dec 10.0 10:41:42 28° W 10:58:22 81° N 11:12:55 10° E visible
17 Dec11.504:59:36ENE04:59:36ENE04:18:05SSWvisible
17 Dec 10.7 07:16:50 55° E 07:16:50 55° E 07:31:48 10° ENE visible
17 Dec 10.2 09:34:04 54° W 09:42:46 82° N 10:00:32 10° E visible
17 Dec 9.9 11:51:50 10° WNW 12:15:04 88° SSW 12:27:03 10° ESE visible
18 Dec 11.3 03:09:29 10° S 03:10:07 11° S 03:10:07 11° S visible
18 Dec 11.3 06:09:11 29° E 06:09:11 29° E 06:17:21 10° ENE visible
18 Dec 10.2 08:26:25 88° NNW 08:26:30 88° NNW 08:47:32 10° ENE visible
18 Dec 10.1 10:43:38 28° W 11:00:30 83° N 11:15:17 10° E visible
